GFSWCAN_700_rhum_231.txt.gz
RH
65 73 65 75 73 85 88 90 76 97 99 88 93 97 98 93 77 68 64 68 74 79 96 86 87 98 100 98 98 98 99 100 99 99 99 98 99 97 97 92 87 91 98 99 98 98 93 74 69 69 59 54 53 49
59 68 74 64 90 84 94 98 95 97 97 96 96 94 90 90 86 79 76 80 85 93 96 96 97 98 97 99 96 98 99 98 93 98 98 99 98 99 98 98 92 96 92 94 96 86 74 65 62 61 58 57 56 55
55 63 74 55 98 90 89 96 96 97 97 98 97 97 97 98 98 95 82 87 96 100 94 88 93 97 98 98 98 100 99 99 100 83 99 99 98 95 94 92 80 90 94 95 94 84 75 72 71 69 68 66 60 58
58 62 75 60 99 94 100 92 99 96 96 96 96 97 97 97 95 91 98 96 100 96 96 89 76 89 96 97 98 98 97 92 94 97 99 98 98 92 95 90 88 85 93 92 90 84 84 77 72 80 79 72 66 63
66 63 74 71 97 98 90 90 95 95 97 96 96 96 97 97 96 98 94 98 100 98 93 78 71 74 79 93 97 98 98 97 95 93 99 97 91 94 96 85 84 76 70 74 67 66 65 66 75 77 79 74 71 68
59 65 74 85 83 95 96 95 91 93 98 96 96 96 95 96 96 98 97 95 87 87 100 100 90 81 79 99 93 98 100 100 100 100 100 99 98 98 98 88 62 64 77 72 75 73 76 75 82 84 83 78 68 68
36 84 76 95 88 83 88 93 97 97 96 92 92 95 96 97 95 98 98 98 96 100 98 93 85 79 78 92 96 97 98 98 98 98 99 98 98 98 97 86 74 69 68 75 80 84 84 80 82 92 90 90 91 81
30 76 95 93 94 85 66 83 93 96 98 97 97 97 97 98 98 95 96 93 94 97 95 97 96 84 93 95 93 97 97 98 98 97 98 100 100 100 94 78 84 81 77 68 78 82 79 77 80 96 97 96 82 72
30 34 84 98 99 90 93 87 76 88 97 98 97 96 100 100 100 96 84 92 92 96 90 87 100 91 87 95 96 97 96 96 97 96 97 97 96 93 82 75 70 76 73 74 83 82 79 79 85 86 87 77 68 60
26 22 49 88 96 99 97 97 94 82 91 85 86 91 95 98 98 94 100 97 97 98 82 83 75 88 75 79 85 96 100 90 96 92 95 96 93 85 76 73 75 78 75 74 70 69 65 69 69 67 67 68 62 59
28 22 19 62 91 96 97 98 95 97 93 94 100 100 92 89 95 96 94 99 97 98 93 94 90 79 88 100 97 96 95 94 89 95 94 95 90 86 89 76 67 70 73 73 66 58 45 42 39 56 58 58 60 64
28 21 18 21 52 90 48 62 89 98 96 96 95 93 94 98 94 94 95 92 94 90 100 98 88 92 92 96 96 95 94 92 92 94 87 81 66 76 79 65 63 63 56 60 54 45 43 44 48 50 57 63 69 69
26 22 23 20 32 58 75 51 91 99 97 95 95 95 96 84 90 84 93 96 100 100 78 91 100 97 97 97 96 95 95 96 86 96 90 66 56 66 62 48 46 42 40 38 38 38 39 45 54 61 64 62 55 54
23 24 26 22 26 33 44 52 75 95 59 43 46 66 80 71 72 69 67 76 72 68 74 100 98 95 95 92 92 94 95 93 94 67 48 36 40 60 81 78 46 37 37 33 30 33 39 50 56 59 59 44 36 50
23 23 23 24 23 28 50 92 89 84 62 26 17 29 56 78 76 65 67 65 80 89 100 100 96 94 95 94 95 86 92 84 71 40 29 24 23 19 26 26 31 31 26 13 11 20 49 58 59 51 39 32 56 75
22 22 22 20 21 27 39 65 78 50 18 16 21 38 85 91 80 63 73 94 97 98 97 96 94 94 95 93 60 60 60 45 34 34 33 32 35 34 40 47 56 54 42 28 20 21 25 31 36 39 42 60 64 36
21 21 21 21 21 19 19 30 58 53 15 22 29 64 74 67 63 64 90 98 96 96 94 82 57 57 68 52 46 47 45 31 36 31 34 41 47 50 59 68 71 73 71 66 51 45 55 66 69 67 54 41 40 46
22 20 20 23 23 17 18 18 19 18 27 40 65 82 82 65 99 100 100 99 97 88 61 45 45 58 53 53 44 37 30 44 52 48 56 68 76 78 64 61 82 89 92 84 80 73 71 60 48 45 47 53 61 59
24 20 22 26 23 26 29 28 30 52 75 77 99 94 80 72 96 98 97 97 98 85 57 47 44 48 45 34 43 44 38 35 39 68 94 95 93 92 72 89 96 96 95 88 79 69 64 68 75 81 80 71 56 41
27 20 23 28 25 27 29 51 61 89 100 91 98 98 95 78 79 98 98 89 84 70 51 37 45 53 45 50 44 32 41 54 58 80 96 99 96 92 76 93 99 100 97 89 79 68 62 59 52 42 36 38 45 46
32 22 24 29 25 27 38 75 81 87 100 100 99 98 98 98 86 89 91 86 82 74 58 61 66 66 62 63 67 70 71 79 74 66 71 84 92 98 100 100 100 92 77 62 48 41 40 36 36 46 49 50 52 57
35 25 27 29 27 27 43 55 76 87 96 96 100 99 95 95 93 93 91 86 81 74 67 64 73 78 75 68 68 74 73 70 72 79 80 87 89 93 92 86 77 69 45 26 26 35 46 51 51 53 56 58 61 69
39 33 33 33 26 27 59 65 91 87 100 100 99 99 94 84 77 75 67 56 51 53 59 63 68 71 73 69 67 70 66 60 57 62 73 76 74 74 68 54 37 34 42 51 52 54 56 57 58 61 66 73 76 77
50 46 39 32 30 35 71 83 76 84 100 98 96 83 80 72 58 50 44 53 40 37 31 30 34 36 41 46 45 46 47 46 46 47 48 49 48 48 49 53 56 56 57 58 61 64 65 65 67 70 73 75 70 52
68 47 39 36 31 37 55 57 66 73 97 94 94 89 79 68 61 70 68 59 60 64 56 48 44 43 49 51 48 45 47 51 54 55 57 61 62 61 60 60 61 64 67 70 73 72 71 71 73 75 68 54 46 43
61 55 49 40 32 36 41 57 57 62 90 94 87 91 92 85 82 79 66 62 64 68 75 79 69 59 50 45 44 44 45 49 55 63 64 67 68 69 70 71 75 75 76 77 78 77 77 78 74 61 51 46 44 39
60 54 48 42 34 31 41 50 58 63 83 82 83 94 94 83 77 92 92 87 88 87 87 86 77 58 52 55 66 75 76 75 75 77 79 80 81 79 79 81 83 83 82 84 88 90 85 70 55 48 45 40 29 24
63 48 40 37 39 43 37 63 84 85 70 62 79 80 76 72 91 92 92 74 61 59 58 57 61 73 91 93 91 89 85 83 85 88 88 90 93 92 90 88 88 89 92 92 89 75 59 50 45 38 28 23 22 22
70 74 70 60 60 69 70 70 67 66 60 60 68 73 71 71 90 98 97 84 73 69 71 70 69 74 79 82 85 87 90 94 97 99 100 97 94 94 95 95 96 94 91 76 59 50 45 37 27 23 21 21 24 28
73 73 84 94 92 90 80 78 73 71 73 73 70 72 74 84 97 100 99 90 83 85 87 85 83 83 86 90 92 93 95 100 100 100 100 100 100 97 91 88 86 72 57 50 45 36 28 23 22 24 27 30 32 43
70 74 80 88 93 94 91 85 78 82 86 88 84 77 78 91 100 100 97 96 95 97 95 90 90 92 93 94 95 94 95 97 99 100 100 97 89 86 82 67 54 49 44 37 30 25 24 25 27 30 32 40 54 63
72 75 84 93 99 100 99 100 96 96 92 93 85 85 88 93 95 98 98 100 99 96 95 94 95 99 99 99 99 99 98 97 97 97 91 86 80 63 52 49 45 38 31 26 24 25 27 30 31 38 53 64 70 71
80 84 94 96 99 100 96 92 93 99 100 100 100 98 96 97 99 93 95 96 97 96 97 97 98 98 99 97 96 96 96 93 89 84 76 62 52 49 45 38 32 27 25 26 29 30 33 42 57 68 74 74 73 76

GFSWCAN_700_rhum_234.txt.gz
RH
32 29 58 61 47 90 76 85 80 94 92 85 82 68 97 96 97 99 95 96 97 91 85 62 50 38 43 50 79 82 98 96 99 99 99 98 98 97 99 99 100 96 98 99 99 99 93 76 74 75 66 61 59 58
32 32 59 66 58 98 81 88 83 99 88 91 99 70 84 91 91 97 98 96 89 97 77 66 63 76 74 89 95 97 98 94 95 99 98 98 98 98 93 94 100 100 97 96 95 90 79 75 72 71 67 64 63 63
32 41 60 65 79 96 86 89 91 97 99 97 98 94 98 95 96 94 96 97 99 73 59 66 69 69 73 93 95 98 96 98 100 76 89 94 98 95 98 96 82 92 96 99 92 89 85 78 75 73 63 63 59 58
31 52 63 66 98 97 90 83 91 95 97 99 90 97 97 97 96 97 98 77 51 62 87 89 75 82 88 93 96 99 98 98 100 93 96 98 95 96 98 92 91 92 98 95 91 78 71 74 80 73 74 77 73 72
31 57 69 69 97 98 94 88 82 95 95 97 92 98 98 99 95 83 75 71 78 86 96 86 80 91 94 85 94 98 96 97 98 99 98 98 95 96 95 99 98 90 80 83 69 73 90 86 94 79 80 78 75 73
31 61 76 81 96 97 99 100 91 91 96 95 97 97 96 87 89 94 99 97 96 91 99 94 94 95 95 94 82 96 100 98 98 98 98 98 98 99 98 92 71 65 61 67 70 62 72 76 81 79 81 83 80 74
31 58 75 91 82 97 97 99 97 96 92 93 96 97 98 97 96 100 98 82 85 96 95 88 74 74 72 84 91 96 97 98 98 98 98 98 96 97 97 81 66 68 77 74 64 72 79 76 85 79 74 84 70 68
33 36 88 80 94 82 97 96 98 94 98 97 96 97 97 97 97 97 97 96 94 92 80 93 84 77 83 92 97 96 97 98 98 97 99 99 99 98 96 70 83 72 71 75 76 69 78 90 89 81 83 61 68 66
36 27 82 89 86 92 91 95 96 96 94 97 99 99 99 99 96 97 96 96 98 98 96 87 76 61 80 90 96 94 95 96 96 97 98 99 98 98 72 72 71 70 72 80 82 72 75 86 82 79 82 59 78 94
38 26 30 96 91 91 94 100 91 99 97 97 97 97 98 98 97 96 97 94 94 97 92 91 71 71 72 94 88 92 96 97 98 98 97 97 96 86 79 72 77 73 71 72 77 76 76 80 82 88 83 97 96 95
41 25 22 74 97 88 87 94 97 92 100 97 96 96 99 98 96 92 82 88 84 86 83 88 92 78 83 100 86 83 90 92 94 93 97 94 80 70 76 76 76 73 75 87 90 82 73 78 85 88 92 92 85 66
43 24 24 30 84 73 76 79 85 90 98 92 82 86 96 95 92 89 88 86 83 88 94 100 100 91 90 99 99 96 95 92 92 89 82 76 53 51 56 72 83 94 85 77 72 66 56 57 62 69 71 73 66 64
44 24 26 27 72 67 71 82 75 84 97 99 98 94 89 86 91 88 90 94 91 87 79 94 97 96 99 97 95 94 94 95 94 98 82 70 59 58 68 81 89 90 77 76 69 58 40 31 40 49 62 68 65 63
44 24 28 26 52 83 98 99 94 97 97 90 91 94 90 78 76 69 73 81 78 75 73 90 100 95 95 95 95 95 95 95 99 87 65 58 60 65 70 79 81 73 67 74 69 60 48 36 44 66 68 68 69 68
39 26 28 28 38 56 93 96 78 67 50 37 27 36 52 57 61 69 68 67 70 76 80 99 97 96 97 95 96 93 98 94 84 65 53 47 58 68 60 48 47 54 57 52 44 39 37 41 57 71 74 65 56 42
35 25 26 30 34 56 98 96 94 92 49 29 25 26 47 64 79 75 62 61 74 81 93 97 95 95 95 95 89 79 76 50 34 34 34 47 46 75 88 74 58 46 37 30 18 18 40 58 63 62 59 49 42 53
31 24 24 26 34 46 76 94 84 72 40 26 36 85 96 82 75 65 61 94 96 100 97 95 93 93 92 74 60 51 39 34 31 32 35 42 31 50 49 41 38 42 26 14 17 33 51 59 57 51 42 42 49 74
30 24 23 24 25 25 34 53 68 54 39 25 63 82 70 72 79 98 100 96 97 95 93 76 53 48 45 45 41 42 39 50 56 59 55 47 55 55 54 60 65 71 65 61 48 45 55 58 62 73 81 74 65 51
27 22 22 26 26 23 24 26 31 24 29 66 96 84 85 96 99 98 97 96 95 94 83 46 39 37 36 34 39 51 58 60 64 70 73 75 70 69 76 81 86 89 81 77 81 80 80 86 80 66 59 55 57 59
25 21 23 29 28 34 32 42 34 39 57 100 92 84 77 97 98 97 97 95 90 64 44 36 39 47 67 61 54 49 46 52 64 77 86 90 88 82 69 86 90 94 93 90 88 85 73 64 59 59 62 69 74 73
24 22 25 32 34 32 34 66 72 74 91 97 98 90 84 92 94 99 93 80 71 55 53 66 56 49 40 36 38 54 63 72 75 67 77 91 93 78 95 98 98 99 100 100 98 88 75 68 67 70 71 59 50 52
26 22 28 32 30 30 45 70 83 93 98 97 97 94 89 94 95 93 82 76 72 74 82 79 69 67 74 75 79 99 100 95 95 99 96 95 90 92 94 98 99 100 100 98 88 67 44 33 36 45 52 54 56 59
31 30 35 34 28 36 74 75 99 93 100 98 98 96 97 96 95 89 88 79 72 73 71 71 72 72 70 68 79 78 77 82 88 97 100 98 100 100 100 100 97 91 83 65 47 41 50 54 56 59 62 65 65 66
36 42 40 32 29 47 90 99 92 87 96 100 99 90 93 85 78 71 48 44 45 52 62 62 58 60 65 68 69 67 61 54 53 55 62 67 70 71 71 58 46 43 50 56 58 59 62 67 71 72 70 67 70 73
52 40 37 34 30 50 86 86 87 76 95 90 92 84 80 74 56 49 54 56 47 43 41 39 40 45 48 47 48 47 52 56 57 57 55 58 60 61 63 64 63 62 63 67 72 75 78 78 77 74 74 75 68 55
47 44 40 33 31 40 51 69 72 67 86 91 84 84 80 70 71 78 68 70 79 80 75 69 64 59 58 66 66 62 63 60 59 59 64 67 68 67 69 73 74 77 80 80 81 81 81 80 77 77 70 56 47 42
55 49 39 33 30 26 34 43 48 64 88 80 77 85 81 81 74 84 70 73 81 95 98 96 86 80 65 57 55 53 56 63 69 73 76 81 82 82 81 80 80 80 80 83 84 82 81 81 72 57 49 44 37 29
53 45 38 34 32 29 29 45 62 78 65 57 64 73 71 68 88 90 87 82 85 84 88 80 61 54 60 77 82 82 82 84 84 85 86 88 89 88 87 85 84 86 88 89 86 84 72 57 48 44 36 28 23 21
46 42 50 47 46 49 48 48 46 51 52 50 54 63 64 57 79 92 72 64 62 60 60 62 63 70 78 84 84 84 85 87 89 93 90 100 99 96 94 93 94 90 87 84 69 53 47 41 34 27 23 21 22 24
57 54 60 60 52 58 58 48 45 45 44 49 48 52 57 80 92 88 73 71 70 73 76 78 82 84 86 89 91 90 92 95 96 99 100 100 100 100 98 92 88 80 62 49 44 37 30 26 22 21 23 26 29 38
77 83 78 79 78 81 78 73 71 69 71 71 72 67 68 86 96 98 96 93 88 92 93 92 91 92 93 94 95 94 95 95 98 100 100 100 100 97 90 77 56 45 40 33 28 25 22 23 25 27 32 42 52 60
82 82 87 88 95 96 86 93 90 89 89 81 86 90 94 94 97 97 96 97 96 95 95 92 92 91 91 94 94 93 94 96 97 97 97 93 86 70 49 42 38 30 27 24 22 23 25 27 35 47 56 62 65 66
93 90 84 88 99 100 99 92 98 99 100 100 98 100 100 98 100 96 98 93 99 98 95 94 92 92 93 96 98 98 98 97 94 89 81 65 46 41 36 29 25 21 20 21 24 28 38 48 57 63 64 66 68 77

GFSWCAN_700_rhum_240.txt.gz
RH
80 82 69 50 41 30 54 65 81 85 81 76 85 85 88 90 78 98 97 96 98 96 95 92 86 99 99 99 66 42 96 86 100 100 98 94 90 84 81 82 88 94 98 98 99 98 93 71 66 66 61 53 56 56
82 81 64 48 36 52 76 98 90 83 85 89 90 77 78 82 83 97 94 91 100 97 94 94 95 99 94 72 61 73 44 60 70 100 92 94 89 75 72 98 92 91 84 79 83 84 74 78 66 65 67 66 76 75
83 79 59 50 31 69 96 97 87 90 87 84 91 72 59 80 89 93 92 95 97 97 96 92 85 95 95 83 84 92 52 88 84 97 100 89 86 78 86 96 88 93 98 95 99 82 82 86 91 84 87 83 91 78
86 77 60 49 38 81 96 87 85 87 91 85 76 64 59 99 95 90 96 92 94 97 94 96 92 96 93 84 81 71 81 79 86 96 85 90 82 85 92 95 87 97 94 82 79 60 82 72 74 89 92 93 95 81
88 76 63 44 50 92 96 89 96 91 94 97 97 78 71 98 90 87 98 96 99 97 95 89 79 82 87 89 94 87 89 95 88 78 73 70 66 76 80 76 60 95 95 76 64 55 80 77 95 99 98 98 96 89
89 76 65 40 58 96 92 97 94 95 99 98 96 100 90 81 84 90 100 100 97 96 97 96 94 90 89 88 84 72 69 79 76 79 84 97 78 84 97 77 61 99 98 89 71 73 82 89 86 97 100 99 93 92
92 79 67 37 56 93 88 96 94 91 97 98 100 100 99 98 99 96 84 89 86 94 95 89 88 93 68 79 93 99 99 98 88 90 94 96 100 90 90 78 44 98 98 97 99 97 82 96 96 98 87 87 91 88
94 82 69 36 44 87 90 92 97 89 92 96 98 99 97 97 100 99 92 88 92 96 97 82 95 93 74 81 82 83 96 98 96 95 95 94 100 96 96 69 43 72 98 94 82 96 92 82 71 90 78 74 69 69
97 86 73 36 32 86 96 91 97 96 98 96 97 98 97 98 97 98 95 93 94 99 85 65 78 76 84 89 86 91 97 97 95 94 96 98 97 97 68 50 70 92 90 74 98 91 74 81 73 61 65 68 78 74
99 90 75 35 26 85 97 96 96 97 97 96 97 97 97 97 96 98 100 100 100 96 80 84 77 69 63 68 76 98 95 96 97 98 96 96 90 69 58 57 67 69 97 99 97 97 79 72 72 65 66 68 79 85
99 93 76 32 24 82 96 96 96 98 97 97 96 96 95 96 97 96 96 97 96 96 95 95 82 67 62 69 82 90 95 95 96 97 97 98 87 59 66 79 44 52 84 98 98 98 97 86 76 76 75 80 85 77
99 96 74 30 25 72 88 92 93 96 96 96 96 96 96 96 96 96 95 93 88 77 73 82 89 81 79 74 81 91 92 86 100 95 99 100 72 63 72 84 86 84 76 80 92 97 92 92 88 89 89 87 73 60
98 97 68 30 34 74 80 64 81 92 96 95 96 96 96 95 95 89 84 75 70 59 60 58 79 93 89 90 93 92 93 99 87 91 98 77 72 69 80 86 83 88 96 92 95 96 95 94 96 95 91 66 63 66
97 96 56 32 42 81 92 88 92 98 97 96 96 94 94 91 81 77 78 67 61 57 61 63 74 93 93 93 96 92 96 90 94 100 76 64 67 62 76 95 96 96 96 100 98 97 98 98 96 96 85 80 85 91
96 95 41 35 59 96 97 98 96 97 95 87 86 90 85 76 74 69 68 70 68 66 71 77 86 94 97 97 93 97 94 100 100 100 69 61 60 84 99 94 91 97 97 98 97 96 96 95 94 96 97 92 85 80
97 92 35 37 69 98 95 94 84 90 85 49 41 54 72 72 66 62 62 62 63 67 75 99 98 96 93 95 96 100 100 100 94 69 54 45 67 69 69 98 99 99 97 96 95 94 93 96 97 94 93 82 72 67
94 76 35 42 74 97 95 80 54 53 38 36 34 40 46 54 47 57 62 56 60 82 100 94 96 100 92 99 95 95 100 92 83 54 58 55 62 88 95 98 98 94 94 93 89 79 65 58 68 72 74 71 72 74
96 51 35 46 92 100 97 92 76 63 47 49 99 91 81 71 68 62 69 80 92 100 96 94 88 97 100 97 95 80 94 89 65 75 82 80 75 75 89 95 96 93 90 82 66 59 57 61 73 76 75 75 75 65
83 37 35 47 82 100 96 96 88 53 46 66 74 70 68 65 76 84 83 85 95 96 95 95 75 74 51 46 56 88 84 74 75 94 95 93 81 70 62 60 50 40 41 44 52 64 80 87 83 76 66 58 56 57
47 34 36 44 65 84 51 46 68 42 91 89 90 98 96 98 97 97 96 94 94 87 67 68 56 46 44 43 64 80 81 71 70 88 85 85 78 67 50 34 46 65 69 74 76 75 71 67 64 61 63 76 85 80
33 34 37 39 50 42 36 36 39 41 85 87 100 99 98 98 97 97 86 74 70 69 90 87 86 90 87 84 84 69 64 70 58 63 75 83 89 88 80 76 65 61 59 63 63 68 77 83 80 76 66 58 55 53
33 36 41 53 57 41 43 43 43 65 89 90 100 97 100 100 94 81 70 71 89 92 79 71 73 76 83 92 91 86 81 77 71 70 78 83 91 96 96 91 91 85 86 86 86 83 82 80 79 72 56 42 40 44
34 44 61 62 45 38 64 66 94 95 100 95 96 96 97 94 88 94 98 89 90 87 87 82 87 93 91 90 92 92 97 97 91 90 93 87 86 90 92 95 97 97 96 95 94 94 86 70 54 46 50 56 59 63
45 78 66 44 36 44 78 94 95 95 98 99 99 96 94 90 80 80 96 95 89 84 88 92 98 95 93 94 89 94 94 98 90 89 96 97 95 94 95 90 89 92 92 84 62 47 46 53 58 61 64 67 70 71
64 45 39 35 34 55 89 91 91 96 97 87 86 92 91 84 74 78 99 100 94 94 93 96 96 97 90 94 97 97 97 99 97 90 83 86 88 82 69 53 48 48 54 58 60 62 64 66 69 71 71 71 70 69
40 40 39 31 36 56 67 84 84 81 88 85 81 82 80 73 68 60 80 88 93 93 86 84 82 80 80 76 66 61 55 52 50 48 46 46 48 56 60 60 61 63 66 68 70 70 70 70 72 72 71 68 54 39
37 34 30 27 28 32 53 66 73 72 82 78 74 76 68 50 46 47 52 55 65 69 60 51 48 53 55 50 50 50 48 53 53 56 57 56 58 61 69 74 74 73 72 72 73 73 73 71 66 49 34 31 29 23
34 30 27 27 29 33 38 76 84 78 71 67 66 67 50 49 52 44 47 46 48 51 53 55 53 56 61 65 60 53 50 53 59 64 71 76 79 80 82 81 79 78 77 76 73 69 48 32 29 25 20 16 12 13
31 32 36 38 39 53 72 67 56 55 50 58 60 49 44 46 46 59 68 71 73 80 83 83 79 66 63 60 61 69 76 81 86 84 85 86 85 83 86 86 84 82 78 70 42 29 25 19 14 10 11 15 21 30
44 37 46 49 44 53 45 38 35 38 45 59 45 37 44 60 71 80 91 95 98 92 70 68 70 74 80 82 82 83 87 89 91 92 94 92 90 89 88 87 82 72 43 29 23 16 10 9 12 17 24 32 36 39
48 52 56 54 48 48 41 46 46 57 62 57 52 47 53 75 94 99 100 98 81 81 83 81 76 84 88 89 92 95 96 94 94 94 92 89 88 87 83 73 44 30 22 14 8 9 12 16 24 30 34 40 50 61
68 65 53 53 69 76 69 77 76 77 70 65 72 77 82 93 95 98 83 78 85 86 90 92 94 91 93 92 91 90 90 90 89 88 88 88 82 72 42 30 22 13 8 9 11 15 23 29 32 37 45 57 59 57
73 68 54 67 94 100 96 78 80 88 89 97 97 91 87 93 81 81 88 92 90 96 98 95 94 94 94 93 91 90 89 88 87 87 83 74 46 31 23 15 8 9 10 12 19 27 30 32 38 47 57 62 61 61

GFSWCAN_700_rhum_246.txt.gz
RH
14 32 50 70 90 100 84 78 75 66 46 30 32 67 97 94 79 93 91 94 99 84 46 63 63 93 99 96 95 60 99 96 96 97 97 88 94 79 85 73 68 70 61 64 92 95 88 32 46 53 66 87 78 74
7 22 47 68 73 73 74 74 71 51 31 32 74 94 98 97 91 100 98 95 98 98 72 84 77 84 96 95 99 90 97 98 95 97 96 98 96 82 76 77 59 66 66 82 71 68 58 60 58 46 70 89 94 80
4 11 29 51 62 64 69 69 58 38 32 72 89 93 93 100 100 98 97 98 97 97 97 99 92 77 90 80 89 97 96 92 92 80 91 97 96 80 86 82 54 65 66 84 95 79 71 66 63 47 59 75 92 98
3 6 18 38 56 60 64 66 49 32 60 81 83 81 94 97 95 97 97 92 99 99 98 96 83 80 88 96 94 98 96 97 90 97 96 97 92 90 78 70 73 66 71 69 58 74 75 46 42 29 34 50 64 98
3 4 17 40 60 64 69 61 38 40 90 89 95 99 97 87 77 85 90 89 97 97 96 86 85 83 94 86 89 88 90 96 98 99 95 92 79 84 95 94 73 59 64 68 80 59 84 60 31 24 35 56 92 67
3 4 15 50 70 68 71 56 35 61 90 93 98 98 80 81 73 96 95 97 98 89 99 94 77 62 89 92 91 98 99 91 91 96 98 88 86 97 97 97 67 63 75 71 70 68 67 39 36 30 43 57 70 83
2 3 13 57 77 74 71 49 35 71 88 95 99 97 86 100 96 100 95 91 90 96 97 94 83 78 94 99 100 91 96 97 97 99 93 83 95 98 94 89 25 39 41 52 47 61 67 62 57 60 46 49 75 93
2 3 17 73 82 79 66 41 40 74 88 90 96 97 100 88 95 98 90 78 86 96 98 90 88 93 80 86 86 87 95 97 96 95 90 93 99 100 96 39 29 38 47 63 47 52 57 45 41 37 46 74 90 96
2 4 30 80 84 84 65 35 57 82 88 89 97 96 99 94 100 93 87 80 95 98 95 89 81 98 76 100 100 97 85 80 80 82 73 80 66 85 40 41 37 38 77 84 64 84 66 82 89 88 57 71 98 99
3 4 53 86 90 85 62 33 74 93 96 96 97 97 97 89 93 94 93 100 98 98 95 84 89 91 70 76 80 90 90 83 98 68 72 69 54 43 50 58 80 87 84 83 91 95 79 99 99 75 93 97 98 98
3 12 76 88 95 84 54 34 83 96 96 98 98 97 92 94 97 98 96 98 95 90 83 76 100 96 79 77 93 89 98 93 93 94 92 91 86 72 94 97 95 95 72 69 78 99 94 98 93 83 96 98 99 99
5 42 89 91 97 84 41 39 86 95 96 96 96 96 97 97 96 96 96 93 89 89 88 98 100 94 81 82 94 92 91 90 99 91 92 82 74 94 90 85 75 59 55 65 88 93 95 86 92 99 98 98 98 99
15 78 92 93 96 80 32 49 88 95 96 97 97 96 96 95 96 96 94 92 89 89 74 60 71 80 83 85 96 93 87 97 91 86 85 70 91 94 92 78 64 59 76 96 96 87 93 98 98 98 98 98 98 99
41 93 92 94 92 66 29 56 84 92 96 97 96 96 94 94 92 90 100 95 84 71 60 66 88 100 100 97 97 92 91 96 100 92 78 83 85 92 93 70 61 89 93 99 99 90 98 100 97 96 98 97 98 98
78 92 89 92 88 38 44 85 79 91 96 96 96 96 94 96 98 89 98 99 82 68 58 74 99 100 100 95 89 94 92 100 97 92 98 80 81 90 81 71 82 92 96 98 98 96 100 98 99 97 97 97 97 96
99 90 95 98 57 50 98 98 98 97 97 96 95 97 94 84 86 81 78 73 72 91 97 92 95 94 83 90 97 91 93 90 98 90 81 76 70 73 70 92 96 96 96 95 96 96 97 97 97 95 95 97 96 96
98 97 98 81 44 95 97 97 96 97 95 94 94 97 95 92 84 74 61 66 66 73 93 95 96 95 97 100 93 94 95 95 94 84 77 67 72 83 97 98 98 98 96 96 96 96 96 96 96 95 96 97 97 95
96 98 94 45 57 98 97 96 97 95 95 95 80 80 96 99 100 70 58 62 72 84 95 96 89 98 90 93 92 98 85 80 77 82 72 80 93 98 97 98 97 97 97 96 96 96 97 97 96 95 94 92 90 91
97 93 68 37 90 97 96 96 96 96 91 90 95 66 55 97 95 67 55 54 60 75 87 92 83 90 97 92 93 83 70 58 88 85 90 95 95 96 97 97 96 95 96 96 96 96 96 96 90 91 90 90 92 91
92 77 37 66 98 97 96 94 93 95 87 83 88 79 90 96 95 80 83 97 97 95 92 94 86 95 92 91 76 48 70 95 95 96 92 90 94 94 92 88 86 82 85 91 92 92 94 94 95 96 95 92 89 82
95 51 48 92 96 97 88 86 91 95 77 76 83 82 86 96 98 95 84 89 98 97 93 78 62 55 56 56 70 94 97 97 94 91 78 76 86 81 80 82 85 91 91 93 87 92 95 93 92 92 87 85 92 89
66 51 83 99 97 89 56 77 84 76 70 78 86 85 87 94 95 96 90 94 80 68 73 82 82 67 78 91 94 95 95 92 92 92 92 92 91 90 91 94 96 93 94 95 95 85 78 78 84 86 78 68 64 63
54 65 98 100 94 63 51 75 84 61 85 88 89 93 96 99 89 88 89 72 76 81 91 97 91 79 74 74 88 95 92 94 95 95 82 74 73 73 74 76 76 74 70 72 79 80 79 77 77 78 74 62 46 39
74 100 96 85 66 42 50 70 73 76 82 86 94 93 97 93 85 98 93 78 75 79 86 93 95 81 72 64 64 77 78 89 94 94 96 96 91 92 94 84 86 86 95 93 92 92 89 80 57 42 44 49 51 54
97 88 78 58 47 54 71 85 96 88 92 95 91 95 88 82 90 91 95 91 97 100 100 97 97 98 94 92 76 70 74 82 94 96 96 96 97 98 100 97 95 94 88 83 64 45 43 48 51 54 57 57 57 52
67 56 54 46 51 64 61 83 77 75 89 95 94 98 89 89 79 95 90 96 98 100 99 98 99 96 93 90 86 92 94 99 100 100 93 90 94 98 93 84 65 46 44 48 52 56 59 59 58 56 46 23 13 11
44 42 44 58 58 78 91 78 69 80 90 85 92 96 88 82 97 96 88 86 97 96 96 97 97 97 92 88 86 78 82 85 82 64 55 49 46 44 44 47 49 54 60 61 60 60 57 50 25 14 11 6 6 6
33 34 33 65 88 79 75 90 91 81 80 91 84 81 76 91 67 65 76 84 84 79 71 70 80 83 77 74 68 62 56 52 47 43 42 45 48 54 62 66 69 69 66 63 61 49 21 13 8 6 5 6 8 14
34 60 52 62 88 97 99 99 98 98 99 91 80 68 66 60 53 50 73 88 85 83 80 74 65 58 54 55 55 51 48 48 51 51 60 69 70 69 70 69 68 68 66 56 23 14 8 6 5 6 8 12 16 22
79 70 68 69 80 95 88 81 77 78 78 72 58 56 56 50 37 52 98 97 97 90 68 55 55 54 57 61 59 54 56 62 70 75 77 76 74 73 71 72 71 65 33 17 9 6 6 6 7 10 14 18 23 28
50 66 52 54 63 70 71 64 63 64 55 55 60 64 54 38 47 93 99 98 89 74 75 74 80 78 78 67 69 78 80 77 78 79 78 78 76 76 76 73 53 24 14 7 6 6 7 9 12 15 18 22 29 32
63 40 37 45 64 81 80 67 63 61 65 65 59 56 51 53 80 99 100 95 87 86 91 89 78 72 76 81 81 81 82 83 82 80 79 79 80 77 70 38 20 11 7 6 6 8 10 12 14 16 20 26 31 34
70 44 46 46 86 100 100 100 100 100 100 100 100 99 86 76 89 89 96 98 96 85 71 71 78 80 81 84 86 86 84 82 80 79 78 77 74 54 28 19 10 7 7 7 9 11 13 15 17 20 22 26 30 36

GFSWCAN_700_rhum_252.txt.gz
RH
5 6 22 34 48 59 60 83 99 98 99 98 95 92 79 72 70 72 61 56 52 43 45 71 65 77 66 66 72 81 100 96 86 85 77 85 88 84 86 74 66 76 74 71 83 99 89 31 45 60 30 46 41 56
4 5 5 18 41 56 59 77 93 99 99 94 90 90 82 77 73 70 54 40 43 100 99 80 74 73 75 64 77 85 100 95 95 98 96 98 93 94 83 92 52 81 47 49 62 54 40 43 40 44 56 57 51 61
3 3 4 5 12 41 57 72 88 89 85 80 84 84 85 78 67 52 37 45 98 98 98 98 53 64 73 68 93 97 84 76 90 88 92 90 100 97 98 80 84 78 66 75 68 46 41 47 54 54 46 41 40 45
3 3 3 4 4 8 28 50 65 68 69 68 77 78 76 65 48 39 66 94 98 98 99 88 64 58 69 88 94 94 73 99 100 99 96 96 99 94 92 89 94 71 89 81 80 62 64 61 47 51 45 47 50 43
3 2 2 2 3 4 5 14 30 51 57 61 66 73 64 49 37 71 93 88 99 98 96 88 72 70 73 83 94 82 82 87 100 99 98 99 98 99 87 93 81 53 61 99 76 61 75 57 48 49 49 40 36 41
4 3 2 2 2 3 3 6 15 32 44 53 54 61 56 37 73 100 96 83 82 95 98 98 83 70 83 77 74 73 73 94 100 99 98 95 96 100 98 94 41 59 68 80 67 55 64 69 48 44 51 43 41 49
6 4 3 2 2 2 2 3 7 18 32 47 50 54 39 44 93 97 96 96 90 97 97 98 95 81 75 66 73 84 82 97 99 98 98 96 96 99 96 92 34 64 51 61 61 93 80 48 44 46 54 40 35 36
8 5 4 3 2 2 2 3 6 18 35 48 49 47 36 63 93 95 93 97 97 98 99 97 93 80 66 62 96 100 100 99 98 95 98 96 98 98 88 38 44 46 51 48 48 64 70 57 54 52 48 46 56 57
14 7 4 3 3 2 2 3 9 27 46 53 50 37 44 80 95 85 96 97 97 97 97 95 82 80 69 70 94 100 96 100 89 85 77 84 80 73 36 54 57 65 68 54 59 58 58 68 61 68 71 58 65 69
15 8 5 4 3 2 2 4 14 40 58 60 44 52 96 81 96 95 96 96 98 97 97 96 84 80 68 73 81 88 91 89 100 70 74 78 56 53 71 56 56 57 72 79 68 56 52 53 57 55 54 57 67 77
14 8 5 4 3 3 2 8 42 64 70 62 44 86 96 96 97 97 97 96 98 97 95 86 90 74 79 88 99 98 95 94 99 79 90 99 88 73 65 70 90 96 84 80 73 63 61 60 58 50 53 81 86 90
10 6 5 4 3 3 3 37 85 81 78 59 96 96 96 97 96 97 95 94 89 83 82 74 67 83 100 90 84 87 84 91 88 98 98 95 65 69 68 81 84 77 60 47 50 53 64 70 72 67 80 99 98 99
7 5 5 4 3 2 12 81 98 89 58 72 98 96 96 96 97 96 94 87 78 71 66 57 68 97 99 99 92 90 93 92 98 97 91 69 58 62 82 86 68 54 47 63 75 86 84 92 100 95 100 97 96 96
85 41 18 5 3 3 54 100 100 73 52 98 96 96 95 95 90 85 69 72 60 57 49 53 69 88 100 100 98 92 91 94 99 98 81 60 68 77 72 64 54 54 66 84 94 93 94 98 98 98 96 97 96 96
87 60 14 4 3 21 98 100 92 52 88 96 96 95 90 84 82 76 74 81 70 68 66 71 88 94 96 97 93 94 96 100 99 84 60 70 80 67 52 52 63 81 94 95 94 94 96 98 97 96 96 96 96 96
96 25 8 4 7 82 99 98 65 62 99 97 93 94 96 82 74 75 84 91 93 92 89 97 98 97 96 92 96 94 100 90 78 68 86 75 59 55 51 64 83 89 95 94 94 96 96 96 96 96 96 96 96 97
58 15 10 8 79 100 98 82 56 94 99 92 77 86 97 98 99 100 97 96 98 98 96 95 96 94 95 96 93 96 92 74 72 82 76 62 61 64 63 85 84 86 89 94 96 97 96 96 96 97 94 96 95 95
42 22 41 100 100 98 90 73 98 97 92 94 74 69 83 88 94 97 95 95 94 96 97 93 91 94 94 96 88 79 80 84 89 82 66 64 81 72 83 85 80 86 93 96 96 96 96 96 96 93 92 91 84 69
48 81 100 99 98 98 71 89 97 96 86 84 81 73 74 90 96 95 95 93 100 99 100 98 90 89 87 79 77 86 92 91 79 63 70 76 92 85 84 88 92 90 95 97 98 96 94 94 86 70 53 56 43 49
57 99 99 99 92 78 90 97 96 97 73 64 60 68 90 98 96 95 96 94 99 99 99 98 89 79 78 87 91 91 95 93 68 82 87 94 98 94 91 88 94 96 96 96 94 94 88 70 58 68 76 74 72 68
82 100 100 98 74 92 97 96 92 84 84 84 87 92 92 97 95 94 89 78 84 99 96 87 83 83 83 82 84 90 74 67 97 94 98 98 96 96 96 95 96 96 96 95 93 74 78 81 81 82 78 69 68 67
97 99 99 90 97 97 100 89 77 72 73 75 94 98 97 96 93 94 97 83 79 81 81 79 76 73 79 77 65 68 88 96 91 91 93 94 94 94 96 96 96 94 88 83 89 89 83 76 78 81 79 66 48 41
99 98 95 94 97 98 95 92 89 84 82 92 99 98 98 99 99 99 100 88 82 79 77 68 64 65 74 80 93 97 87 89 89 93 94 90 87 88 89 88 88 84 82 85 92 94 95 89 75 56 47 48 51 53
98 99 97 95 88 96 99 97 88 84 86 96 96 96 97 96 98 100 91 78 76 68 79 78 79 90 95 98 96 88 87 91 84 78 76 77 75 75 80 83 88 98 100 100 97 92 74 49 48 53 55 54 47 24
97 98 98 85 89 98 100 97 90 85 84 97 93 95 96 95 96 95 84 71 68 83 86 80 79 83 81 91 91 90 90 93 91 82 83 90 95 92 85 84 89 93 91 89 75 46 46 50 54 54 44 17 9 5
96 92 80 69 70 90 91 94 91 84 85 96 96 96 96 96 91 90 74 67 63 78 88 79 69 71 78 84 80 81 84 84 92 96 95 94 93 92 94 95 89 73 51 44 48 53 55 54 50 19 9 5 4 5
78 73 60 60 51 45 53 73 74 84 96 93 94 98 94 91 85 75 69 72 70 81 97 95 88 90 86 80 81 86 87 90 96 99 94 95 91 86 72 53 50 51 57 61 62 61 57 30 11 6 5 5 7 8
56 58 50 48 49 45 41 66 80 88 86 82 90 91 83 72 61 59 68 75 86 82 88 92 93 98 100 99 96 94 88 84 78 67 56 49 45 46 50 56 64 68 67 65 63 44 16 7 5 6 7 8 8 10
48 54 50 46 41 35 53 65 68 76 73 70 78 75 74 64 56 56 67 81 84 97 91 95 96 92 88 82 78 66 59 56 53 49 48 52 56 61 67 69 69 68 67 64 30 12 6 6 6 7 8 8 9 11
49 42 41 49 41 54 62 41 48 44 51 58 58 64 64 62 65 69 79 87 87 85 95 95 94 87 79 71 66 61 56 51 48 50 63 71 74 74 75 72 68 67 58 24 11 6 6 7 7 8 9 10 11 12
40 49 71 60 70 63 72 80 80 75 71 72 82 90 70 60 74 98 99 100 98 96 84 76 71 68 63 52 47 54 56 58 65 74 74 78 81 80 76 72 71 62 28 11 7 6 7 8 8 9 10 11 12 14
65 62 75 74 76 78 96 100 100 99 94 92 80 81 69 58 62 79 94 97 98 96 87 83 72 55 51 61 64 63 80 88 83 82 84 82 79 76 74 74 57 28 13 7 7 8 8 9 10 10 11 12 14 15
77 74 72 72 65 72 92 100 97 100 100 97 91 75 70 61 60 69 86 96 98 95 92 72 64 78 86 77 76 82 83 84 84 81 78 75 72 72 69 46 25 14 8 7 8 9 10 11 12 12 14 15 16 17

GFSWCAN_700_rhum_255.txt.gz
RH
27 91 55 44 50 49 44 49 86 98 98 99 100 99 98 100 96 90 78 81 80 80 65 56 35 27 54 72 89 94 100 74 90 99 96 89 93 79 75 57 60 78 85 90 100 98 89 38 40 62 32 50 45 45
6 18 12 24 36 53 56 50 64 100 99 100 100 96 97 100 99 92 73 75 79 74 60 41 27 36 47 66 88 98 95 88 96 97 90 94 83 86 73 85 67 89 65 70 76 69 59 56 53 51 51 54 46 54
5 5 6 8 19 40 59 79 94 98 100 100 97 95 95 98 99 93 77 81 76 66 58 33 27 66 68 76 96 97 76 79 92 97 95 94 94 93 93 81 81 64 73 92 86 59 66 68 71 62 54 62 49 46
4 4 5 6 6 17 48 66 83 98 97 96 94 89 89 91 100 100 84 75 64 45 91 52 62 56 79 66 82 90 83 95 96 98 98 96 97 94 82 88 87 64 83 98 91 55 68 63 68 61 58 53 54 47
4 3 4 4 5 6 13 39 65 72 81 74 83 73 77 84 91 94 77 56 38 50 94 90 68 69 79 75 74 87 99 100 97 97 98 100 100 100 86 90 74 56 62 89 72 63 91 82 42 58 65 55 63 65
6 4 3 3 3 4 5 6 15 44 64 61 64 68 69 78 86 83 60 28 50 84 98 96 60 54 63 68 74 81 82 100 98 96 98 100 100 99 96 88 47 46 63 93 87 72 81 62 51 51 78 61 49 52
9 6 4 3 2 2 3 3 4 7 13 22 45 61 60 66 75 68 33 75 100 98 98 98 96 83 81 75 77 79 98 100 100 100 97 92 98 99 97 84 23 50 66 80 84 90 84 68 61 48 58 56 64 58
18 8 6 4 3 2 2 2 3 4 7 18 39 48 56 64 68 46 25 66 97 97 98 97 93 80 76 76 77 85 99 96 100 99 98 99 98 96 93 30 49 54 66 62 65 85 85 70 79 72 67 62 58 57
59 10 7 5 4 3 2 2 2 3 7 14 27 49 59 63 55 22 40 88 97 98 97 96 88 85 74 78 88 100 100 98 95 97 96 98 99 88 34 48 51 60 63 58 63 74 76 74 67 63 59 51 52 47
62 28 8 6 5 4 3 2 2 4 8 24 46 76 64 56 32 54 85 97 97 97 97 90 79 82 76 68 100 99 100 97 97 84 85 96 42 33 44 55 54 50 58 67 69 66 66 53 48 42 42 44 48 43
74 25 11 7 5 4 4 3 3 10 35 78 79 78 58 74 100 99 96 97 96 96 87 85 75 76 81 92 84 88 93 99 100 80 90 100 57 41 49 58 65 66 74 88 86 73 58 53 59 69 70 81 75 63
97 47 13 7 6 4 3 3 9 31 98 98 95 72 68 90 97 97 97 95 89 82 78 67 62 80 93 97 96 92 85 92 90 98 97 94 54 51 62 69 74 77 82 73 63 58 64 84 95 92 98 99 100 100
94 38 13 8 6 4 3 4 27 74 79 96 88 100 94 94 97 96 96 94 78 74 66 60 60 92 100 99 96 92 93 100 98 99 87 61 52 68 70 72 62 48 55 67 78 95 98 98 94 95 97 97 97 96
89 43 23 8 5 4 4 8 68 98 100 78 93 99 95 95 89 89 77 62 63 58 52 63 70 89 100 96 97 92 93 94 96 100 79 61 67 64 64 50 41 51 72 89 96 95 95 96 96 97 97 96 96 96
93 93 97 16 7 5 5 37 100 100 99 98 99 93 81 77 85 85 84 87 74 66 60 66 88 97 99 98 95 92 90 96 95 76 65 70 74 66 55 44 51 74 86 91 95 95 96 96 97 96 96 96 96 96
84 96 96 63 21 8 12 85 100 98 89 99 97 87 83 66 68 89 93 96 83 82 86 99 100 98 96 92 95 91 97 85 71 74 80 75 69 59 50 63 75 78 86 84 88 95 96 96 95 95 96 94 95 94
92 81 67 38 18 9 54 100 100 98 90 97 82 73 86 71 55 72 79 88 96 97 94 100 96 92 96 96 96 95 87 77 84 83 80 73 61 58 65 80 73 79 85 86 90 95 95 96 97 96 96 96 96 95
74 57 52 37 13 41 100 98 100 97 77 92 86 61 69 91 90 94 97 97 97 98 96 99 94 91 88 89 78 69 68 73 80 82 77 65 58 65 79 83 77 93 94 90 92 97 96 93 75 56 58 59 57 55
85 67 53 56 95 100 99 97 96 90 84 56 61 61 59 76 93 96 96 95 96 97 96 96 92 91 85 77 73 71 78 86 87 81 73 61 71 80 86 92 94 95 96 96 94 95 90 61 55 65 74 82 72 76
91 78 92 100 100 98 100 97 80 91 97 65 63 79 74 77 91 95 96 95 96 97 98 98 92 79 74 75 77 85 88 84 81 80 70 76 91 88 91 98 96 96 97 95 90 72 62 60 63 64 63 61 62 58
100 95 100 100 99 100 94 90 76 85 96 76 68 71 67 74 100 99 98 96 97 96 97 88 83 89 89 87 86 82 79 82 69 80 84 99 96 97 96 97 97 97 96 83 68 68 67 63 65 70 71 62 42 38
99 100 99 100 100 100 79 97 95 94 93 70 67 70 76 95 97 97 96 94 91 88 84 85 88 87 78 72 77 80 73 75 91 88 96 98 95 95 96 97 96 92 77 72 71 75 81 82 71 52 42 44 48 49
99 100 100 100 100 93 87 98 99 80 87 93 90 96 100 99 97 96 96 85 78 71 69 75 70 67 65 70 73 66 85 90 86 95 95 94 95 96 96 88 77 82 80 80 84 89 84 62 43 45 49 50 44 21
99 98 99 96 93 93 97 98 95 79 72 91 99 98 96 96 96 97 91 82 72 73 69 67 58 55 62 70 81 87 85 87 93 85 82 86 84 81 77 76 77 84 92 95 91 81 50 48 51 53 50 26 10 5
99 97 98 100 92 95 98 92 95 78 74 100 99 97 100 95 97 93 80 69 68 65 61 64 66 79 77 85 83 89 88 89 89 82 77 76 80 78 76 78 81 84 91 93 78 50 52 57 56 52 17 7 5 5
97 98 96 78 92 97 97 98 94 78 76 99 99 94 98 97 93 85 72 66 62 57 66 70 70 80 93 93 88 82 77 77 82 88 90 84 80 86 88 97 100 95 66 48 50 56 60 58 49 14 6 5 5 5
97 96 70 69 93 95 88 82 74 77 87 95 96 96 93 91 82 68 60 61 59 67 80 74 72 81 88 91 93 94 90 89 89 84 90 92 88 88 90 87 68 49 45 52 58 58 56 38 12 5 5 6 6 6
92 76 55 53 72 85 76 84 92 96 88 85 83 84 78 73 64 57 55 59 60 68 83 75 86 92 96 94 91 88 86 85 85 82 83 81 76 62 49 43 41 47 56 58 59 59 33 11 5 5 6 6 6 6
66 59 54 51 50 55 66 73 70 71 74 75 73 72 74 65 56 50 54 63 69 87 96 94 90 94 93 92 92 90 89 83 60 52 50 49 48 46 46 54 62 63 62 62 59 29 10 6 6 6 6 7 7 8
66 60 56 49 46 46 47 50 58 57 61 65 62 65 67 66 60 55 62 69 77 85 93 93 89 83 83 78 70 64 58 54 52 51 48 50 56 62 68 70 70 67 66 61 28 10 6 6 7 7 8 8 8 10
48 52 52 46 42 39 42 46 56 50 43 47 60 62 64 57 66 72 80 84 87 88 95 91 86 87 81 73 67 62 53 51 52 52 56 65 68 72 75 74 72 71 68 38 13 7 6 7 8 8 9 9 10 11
55 59 56 45 46 60 67 79 78 71 73 78 79 80 78 67 65 77 93 95 88 92 94 88 76 72 66 62 54 44 43 56 63 74 75 76 75 74 73 71 73 66 38 16 8 7 8 9 9 10 10 11 12 14
77 65 67 71 63 76 85 93 87 95 95 94 91 85 87 82 66 67 84 89 91 98 96 87 82 74 63 55 54 61 61 70 77 78 79 76 73 71 70 71 55 31 18 10 7 8 10 10 11 11 12 13 14 15

GFSWCAN_700_rhum_261.txt.gz
RH
91 95 96 72 58 50 46 69 86 94 97 97 97 97 96 96 94 90 70 58 54 53 52 53 53 53 49 49 43 48 62 69 77 83 96 86 93 82 84 66 60 58 65 99 100 94 85 33 50 68 68 62 61 64
81 91 94 94 78 62 58 58 82 94 97 98 97 90 97 94 92 86 90 93 85 67 50 55 54 53 48 44 47 43 60 72 84 82 85 94 94 90 77 92 80 92 70 67 65 59 50 48 53 56 59 66 75 84
62 84 90 95 95 84 67 69 95 95 95 90 88 96 96 96 92 90 98 97 81 57 47 40 46 55 46 43 44 31 62 70 77 87 94 99 95 94 97 94 91 82 78 82 87 64 49 55 62 66 65 76 77 78
38 72 73 89 96 96 72 83 95 96 97 96 97 97 97 96 94 87 93 95 76 61 47 38 44 55 47 55 61 47 77 80 84 96 99 96 87 84 83 86 92 79 82 70 69 51 55 52 65 54 48 60 58 57
11 12 11 21 82 96 90 97 83 87 97 97 97 96 97 97 91 85 87 87 86 73 52 64 37 56 97 34 28 50 78 88 96 92 98 94 83 91 89 91 54 58 60 75 64 62 76 51 49 60 60 55 60 78
19 8 8 10 18 95 91 98 91 87 98 97 97 97 97 98 91 82 86 74 84 76 54 31 42 65 42 73 71 79 72 83 100 100 96 93 85 100 98 81 44 50 65 72 66 56 57 48 57 67 71 67 75 83
51 18 10 8 14 81 89 75 97 97 96 94 96 97 96 96 83 80 70 92 86 63 61 75 67 75 69 73 69 70 77 77 93 100 96 92 97 100 97 69 26 51 57 61 54 45 45 65 55 61 66 60 64 69
88 43 16 7 7 13 64 75 72 95 97 96 97 97 96 96 82 72 70 85 97 91 72 77 69 56 54 67 77 79 84 100 98 99 92 93 98 100 87 37 40 54 49 56 60 62 58 56 59 63 66 57 47 55
100 80 30 12 6 4 6 10 26 60 87 95 97 97 97 93 66 61 96 94 89 100 94 63 70 79 91 82 92 87 98 98 96 94 88 99 96 92 40 49 53 50 51 52 50 50 49 48 43 42 52 72 80 79
100 100 58 20 9 5 4 3 4 5 8 21 61 100 99 67 63 52 68 84 89 85 100 68 45 73 76 86 91 98 97 98 98 92 99 100 70 46 53 49 52 56 55 54 44 40 41 42 55 80 84 84 86 86
99 100 98 43 15 7 5 4 3 3 4 7 19 38 25 17 22 51 63 90 89 100 92 41 30 34 60 93 98 96 96 92 91 85 92 99 44 39 47 55 61 59 58 52 50 47 54 74 88 89 84 84 91 95
98 100 100 69 22 9 6 4 4 3 11 25 34 26 49 70 92 98 85 87 97 95 92 59 51 57 91 94 100 96 96 95 84 97 100 84 40 47 56 61 65 63 56 48 46 65 77 83 86 87 93 90 88 92
99 100 100 94 33 12 7 5 5 18 44 59 77 66 62 60 86 98 97 100 90 79 65 51 64 79 98 100 97 96 95 95 92 97 98 58 48 51 63 68 65 56 43 54 61 64 72 80 87 92 91 91 96 95
100 99 100 93 46 14 8 6 6 61 100 100 90 95 67 78 49 56 76 86 80 65 66 71 71 92 99 97 96 96 95 96 100 100 73 54 58 59 64 70 56 46 61 60 61 69 78 81 83 84 88 95 98 94
95 98 100 86 56 19 8 7 8 75 100 100 84 70 51 69 84 73 42 77 76 80 82 75 81 91 97 96 96 96 96 97 89 71 55 61 72 77 72 60 49 60 65 66 68 80 82 91 94 87 90 95 96 97
96 100 100 90 54 16 10 12 8 66 100 92 68 64 49 42 75 88 91 77 72 94 96 97 97 95 96 92 94 84 94 82 59 56 60 68 86 80 69 57 60 70 73 74 80 86 89 92 95 90 91 92 91 93
100 92 95 83 65 83 100 44 16 65 100 92 65 46 68 52 34 55 85 97 97 100 98 96 95 91 92 95 90 86 73 61 66 74 80 87 82 75 68 60 72 78 83 83 91 89 66 59 77 79 76 77 75 68
100 98 100 92 99 100 100 77 43 84 84 74 62 40 46 69 86 80 64 76 93 99 98 95 97 94 84 74 74 65 67 74 80 81 85 82 80 74 67 70 84 90 94 94 92 76 63 74 78 62 52 41 42 41
86 96 95 89 91 99 83 72 65 85 78 64 26 36 42 34 74 81 88 96 85 86 86 97 99 91 84 79 76 74 79 84 75 75 80 81 75 68 70 89 96 97 96 95 87 72 71 69 67 49 34 37 44 45
73 88 90 91 91 88 98 74 58 60 78 52 16 13 20 33 32 61 68 83 96 100 98 98 95 95 94 92 92 92 90 83 75 74 73 68 67 67 86 100 98 97 96 93 84 82 73 76 58 37 37 42 44 37
86 84 96 98 100 100 94 98 100 63 35 59 60 59 39 14 27 38 59 84 96 97 97 97 95 96 96 96 93 90 83 74 66 64 68 74 73 84 100 98 97 97 94 85 89 85 82 70 43 39 42 45 34 10
83 96 95 99 100 100 81 77 97 96 69 27 30 88 84 43 20 34 51 82 97 82 94 97 98 95 94 91 92 90 82 67 62 69 70 73 83 93 98 97 96 95 91 89 86 87 81 55 42 44 45 40 11 5
100 100 100 100 100 100 75 77 95 100 98 56 27 62 99 88 68 49 72 84 82 68 81 95 96 95 95 95 94 93 76 65 71 69 73 81 90 94 97 96 93 88 90 90 94 91 77 45 43 48 50 22 6 4
100 100 100 100 96 84 66 72 80 98 94 80 64 59 98 97 87 99 90 76 68 78 85 86 89 92 94 93 89 79 67 72 72 73 82 93 93 90 90 89 88 88 88 91 92 84 54 43 50 54 48 12 5 5
100 100 100 95 88 68 76 69 87 79 100 74 86 97 100 98 99 92 70 59 59 75 78 74 75 82 65 62 60 58 65 77 80 83 84 88 98 90 78 75 82 88 94 94 88 58 44 52 58 58 32 6 6 6
99 96 86 72 82 69 63 89 93 87 88 96 84 96 95 92 83 79 56 48 48 57 62 67 62 57 55 52 56 60 72 77 76 79 82 80 88 83 87 92 94 95 94 91 81 48 52 60 60 41 11 6 6 6
76 85 71 90 93 59 56 62 85 87 96 96 93 85 90 85 76 68 58 59 57 63 66 65 62 56 58 61 72 80 80 82 75 73 77 78 80 81 83 84 86 91 95 82 51 54 61 62 57 20 6 6 6 6
55 86 69 64 94 96 66 57 81 96 97 83 81 77 78 74 68 56 63 59 58 63 63 63 64 71 77 80 80 81 79 75 71 71 71 74 80 89 93 94 94 84 52 49 57 62 62 62 36 10 7 8 8 7
55 65 88 90 98 98 94 67 80 97 75 71 70 64 53 46 58 64 57 64 55 59 61 69 72 76 82 86 87 85 84 84 86 88 88 88 91 92 91 87 60 48 50 58 63 64 64 44 16 7 8 9 9 8
65 94 99 98 93 88 76 78 97 80 72 77 71 63 65 70 69 64 60 53 58 58 67 82 84 80 80 82 80 82 85 87 83 82 81 80 78 64 53 50 49 53 62 67 69 68 61 29 10 8 10 10 10 10
95 99 98 94 98 87 75 87 92 82 71 69 69 78 81 78 64 55 50 52 60 63 70 75 77 90 95 92 89 89 90 91 92 84 63 56 53 46 46 53 62 69 71 71 70 70 48 17 9 10 11 11 11 11
98 98 94 95 94 79 78 83 80 74 66 75 82 80 81 79 74 64 56 52 58 65 78 88 89 91 91 92 94 91 84 74 64 60 57 48 46 53 64 71 73 72 69 70 64 42 22 10 9 11 11 12 12 12
99 100 100 96 74 57 55 61 62 63 63 61 68 78 74 71 72 67 64 62 60 71 90 100 98 97 97 93 82 72 68 66 56 45 45 52 64 71 73 72 70 68 68 63 43 24 14 10 10 12 13 13 13 14